Regional Weather Roundup
Issued by NWS

Home | Current Version | Previous Version | Graphics & Text | Print | Product List | Glossary On
Versions: 1 2 3 4 5 6 7 8 9 10 11 12 13 14 15 16 17 18 19 20 21 22 23 24 25 26 27 28 29 30 31 32 33 34 35 36 37 38 39 40 41 42 43 44 45 46 47 48 49 50
000
ASUS43 KMPX 241901
RWRMN
WEATHER ROUNDUP FOR MINNESOTA
NATIONAL WEATHER SERVICE TWIN CITIES/CHANHASSEN MN
100 PM CST MON NOV 24 2014


NOTE: "FAIR" INDICATES FEW OR NO CLOUDS BELOW 12,000 FEET WITH NO
SIGNIFICANT WEATHER AND/OR OBSTRUCTIONS TO VISIBILITY. N/A MEANS
CURRENT SKY AND/OR WEATHER CONDITIONS ARE NOT AVAILABLE.

MNZ060>063-068>070-242000-
   Twin Cities Metro

CITY           SKY/WX    TMP DP  RH WIND       PRES   REMARKS
TWIN CITIES    CLOUDY    20  14  77 NW20G30   29.49R WCI   4
ST PAUL        CLOUDY    22  16  78 NW22G29   29.50R WCI   6
CRYSTAL        CLOUDY    22  15  75 NW16G29   29.49R WCI   8
BLAINE         CLOUDY    23  18  80 NW17G26   29.47R WCI   9
LAKEVILLE      CLOUDY    18  16  93 NW23G29   29.48R WCI   0
EDEN PRAIRIE   CLOUDY    20  13  74 NW13G25   29.50R WCI   7
SOUTH ST PAUL  CLOUDY    23  17  77 NW13G24   29.48R WCI  11
LAKE ELMO      CLOUDY    23  19  86 NW17G25   29.46R WCI   9
$$
MNZ001>005-007-008-013>017-022>024-027-028-242000-
   Northwest Minnesota

CITY           SKY/WX    TMP DP  RH WIND       PRES   REMARKS
BEMIDJI        LGT SNOW  11   7  81 NW17G25   29.61R WCI  -6
HALLOCK        MOSUNNY   10   7  85 N20G30    29.81R WCI  -8
ROSEAU         SUNNY     16   9  73 N18       29.73R WCI  -1
WARROAD        FLURRIES  12   7  79 NW15      29.71R WCI  -4
THIEF RVR FALL CLOUDY    10   5  79 NW17G23   29.73R WCI  -7
CROOKSTON      FLURRIES  12   9  85 N25G31    29.78R WCI  -8
FOSSTON        LGT SNOW   9   5  85 NW15      29.70R WCI  -8
DETROIT LAKES  LGT SNOW  10   7  85 N28G35    29.68R WCI -11
MOORHEAD       CLOUDY    10   9  92 N21       29.77R WCI  -9
PARK RAPIDS    MIX PCPN  11   5  77 N25G32    29.59R WCI -10
$$
MNZ006-009>011-018-025>026-242000-
   North Central Minnesota

CITY           SKY/WX    TMP DP  RH WIND       PRES   REMARKS
BAUDETTE       LGT SNOW  14   8  77 NW22G29   29.64R WCI  -4
FLAG ISLAND    FLURRIES  12   7  79 N22       29.69R WCI  -7
INTL FALLS     FLURRIES  16  10  77 N18       29.57R WCI   0
WASKISH        LGT SNOW  14  10  85 NW9G20    29.63R WCI   2
BIG FORK       LGT SNOW  16  10  79 NW10G21   29.55R WCI   3
LONGVILLE      LGT SNOW  14   9  79 NW14G22   29.55R WCI  -1
GRAND RAPIDS   CLOUDY    16  10  79 NW23      29.49R WCI  -2
CRANE LAKE     FLURRIES  16  10  79 NW14G22   29.53R WCI   1
ORR            FLURRIES  16  10  79 NW10G20   29.48R WCI   3
COOK           LGT SNOW  18  12  79 NW10G17   29.48R WCI   6
$$
MNZ012-019>021-037-242000-
   Northeast Minnesota

CITY           SKY/WX    TMP DP  RH WIND       PRES   REMARKS
DULUTH         LGT SNOW  23  18  81 N15G38    29.34R BLWGSNOWWCI  10
ELY            FLURRIES  18  12  79 NW9G21    29.42R WCI   6
HIBBING        FLURRIES  20  12  71 N22G28    29.46R WCI   3
EVELETH        MIX PCPN  21  14  73 N17G26    29.45R WCI   7
DULUTH HARBOR  CLOUDY    28  23  80 NW17      29.41R WCI  16
TWO HARBORS    CLOUDY    27  19  74 N13G21    29.32R WCI  16
SILVER BAY     CLOUDY    25  14  63 NW8G28    29.31R WCI  16
GRAND MARAIS     N/A     22  13  68 N29G60    29.22R WCI   4
G MARAIS ARPRT LGT SNOW  16   9  73 NW21G32   29.26R WCI  -2
$$
MNZ029>031-032-039>041-046>048-054>057-064-242000-
   West Central Minnesota

CITY           SKY/WX    TMP DP  RH WIND       PRES   REMARKS
FERGUS FALLS   CLOUDY     9   1  72 N28G33    29.74R HAZE    WCI -13
WHEATON        LGT SNOW  10   5  79 NW23      29.76R WCI -10
MORRIS         LGT SNOW  10   7  85 NW28G38   29.68R WCI -11
ALEXANDRIA     CLOUDY    11   4  73 NW23G31   29.61R WCI  -9
ELBOW LAKE       N/A      8   3  78 NW26G33   29.68R WCI -13
WADENA         CLOUDY    10   5  79 NW18G25   29.60R WCI  -8
GLENWOOD       CLOUDY    10   7  85 NW25G32   29.61R HAZE    WCI -10
APPLETON       CLOUDY    12   7  79 NW29G35   29.71R WCI  -9
BENSON         LGT SNOW  12   7  79 N28G33    29.66R WCI  -9
ORTONVILLE     FLURRIES  12   5  73 NW20G31   29.71R WCI  -6
MADISON        FLURRIES  18  10  73 NW29G38   29.72R WCI  -2
WILLMAR        LGT SNOW  12   7  79 NW30G39   29.62R VSB 1   WCI  -9
$$
MNZ033>034-036-042>043-049>051-058-059-242000-
   Central Minnesota

CITY           SKY/WX    TMP DP  RH WIND       PRES   REMARKS
ST CLOUD       LGT SNOW  19  11  70 NW20G32   29.52R WCI   3
SAUK CENTRE    CLOUDY    13   7  74 NW22      29.58R WCI  -5
PAYNESVILLE    CLOUDY    12   8  81 W24G30    29.58R WCI  -8
AITKIN         FLURRIES  21  12  68 NW12G23   29.48R WCI   9
PINE RIVER     LGT SNOW  16  10  79 NW18G28   29.59R WCI  -1
BRAINERD       MIX PCPN  17  10  74 NW20G32   29.53R WCI   1
STAPLES        CLOUDY    12   7  79 NW18G25   29.58R WCI  -5
LONG PRAIRIE   CLOUDY    12   5  73 NW23G31   29.58R WCI  -7
LITTLE FALLS   LGT SNOW  18   9  68 NW9G23    29.55R WCI   6
LITCHFIELD     MIX PCPN  18  12  79 NW17G26   29.56R WCI   2
BUFFALO        CLOUDY    19  11  74 W15G23    29.54R WCI   4
MAPLE LAKE     CLOUDY    19  14  82 NW16      29.54R WCI   4
$$
MNZ037-044-045-052-053-242000-
   East Central Minnesota

CITY           SKY/WX    TMP DP  RH WIND       PRES   REMARKS
PRINCETON      FLURRIES  21  16  79 W17G24    29.49R WCI   7
MORA           LGT SNOW  21  14  73 NW16G28   29.48R WCI   7
CAMBRIDGE      CLOUDY    25  14  63 W16G25    29.46R WCI  12
RUSH CITY      CLOUDY    23  17  76 NW16G23   29.45R WCI  10
MOOSE LAKE     CLOUDY    23  18  80 NW10G23   29.42R WCI  12
HINCKLEY       FLURRIES  25  19  80 NW12G22   29.43R WCI  14
CLOQUET        CLOUDY    23  18  80 NW20G31   29.39R WCI   8
MCGREGOR       CLOUDY    21  16  79 NW17G30   29.47R WCI   7
$$
MNZ071>073-080-081-089-090-097-098-242000-
   Southwest Minnesota

CITY           SKY/WX    TMP DP  RH WIND       PRES   REMARKS
MONTEVIDEO     CLOUDY    12   9  85 N22G35    29.69R WCI  -7
GRANITE FALLS  CLOUDY    13   7  76 NW29G38   29.70R WCI  -8
CANBY          CLOUDY    17  10  77 NW18G28   29.72R WCI   0
MARSHALL       CLOUDY    16   7  67 NW26G33   29.67R WCI  -3
REDWOOD FALLS  LGT SNOW  16   9  74 NW24G32   29.64R WCI  -2
OLIVIA         SNOW      16  12  86 NW26G32   29.62R VSB 1/2 WCI  -3
PIPESTONE      FLURRIES  18  10  73 NW23G31   29.67R WCI   0
WINDOM         FLURRIES  18  10  73 NW28G38   29.61R WCI  -1
WORTHINGTON    CLOUDY    19  12  73 NW21G30   29.64R WCI   3
JACKSON        CLOUDY    21  12  68 NW25G32   29.61R WCI   4
TRACY          FLURRIES  17  11  78 NW22G30   29.66R WCI  -1
SLAYTON        CLOUDY    17  11  77 NW23G32   29.64R WCI   0
$$
MNZ065>067-074>077-082>085-091>093-242000-
   South Central Minnesota

CITY           SKY/WX    TMP DP  RH WIND       PRES   REMARKS
MANKATO        CLOUDY    18   9  68 NW26G39   29.55R WCI  -1
NEW ULM        LGT SNOW  16  10  79 NW29G39   29.58R WCI  -4
ST JAMES       FLURRIES  19  12  73 W31G38    29.61R WCI   0
FAIRMONT       CLOUDY    19  10  68 NW28G37   29.58R WCI   1
GLENCOE        LGT SNOW  19  14  81 W23G31    29.55R WCI   2
FARIBAULT      CLOUDY    19  16  86 W18       29.50R FOG     WCI   4
OWATONNA       FLURRIES  19  16  86 W21G28    29.50R WCI   3
WASECA         FLURRIES  19  12  73 W30G36    29.54R WCI   0
ALBERT LEA       N/A    N/A N/A N/A MISG      29.50R
$$
MNZ078>079-086>088-094>096-242000-
   Southeast Minnesota

CITY           SKY/WX    TMP DP  RH WIND       PRES   REMARKS
ROCHESTER      CLOUDY    21  16  81 NW23G31   29.43R WCI   5
RED WING       CLOUDY    25  18  74 NW14G20   29.44R WCI  13
STANTON        CLOUDY    22  17  79 NW18G29   29.48R WCI   8
DODGE CENTER   CLOUDY    19  18  93 NW18G29   29.45R WCI   4
WINONA         LGT SNOW  28  23  80 W13G20    29.41R WCI  18
AUSTIN         CLOUDY    18  14  86 W22G30    29.48R WCI   0
PRESTON        CLOUDY    21  17  85 NW22G29   29.43R WCI   4
$$
ABBREVIATIONS USED IN REMARKS
   TC - TEMPERATURES IN CELSIUS
  WCI - WIND CHILL INDEX
   HX - HEAT INDEX
  VSB - VISIBILITY
$$



USA.gov is the U.S. government's official web portal to all federal, state and local government web resources and services.